Address 0x060c0c1e8bc4e2403e536c74961dae1c36040550 1

 
Ad
Ad
Txn Hash Method
Block
From
To
Value [Txn Fee]
0xf1d0d5a99dcb4b8b5111d8f6405f92b0e4a1756d004f1bd82595592aabd1fdafTransfer221986072021-12-06 10:48:431 hr 15 mins ago0x060c0c1e8bc4e2403e536c74961dae1c36040550OUT 0xb4666b7402d287347dbbdc4ea5b30e80c376c0b30 MATIC0.0055144551
0x5b8f3eadb0e4698f55b11036fcb823e068e4000ad3a332d3649163a9a9938ca0Transfer221986012021-12-06 10:48:311 hr 15 mins ago0x060c0c1e8bc4e2403e536c74961dae1c36040550OUT 0xb4666b7402d287347dbbdc4ea5b30e80c376c0b30 MATIC0.00449154
0xe89849c003f1b8863b475115ad71c96f7a90de215ad20f7bf0ce494e2750b033Transfer221985942021-12-06 10:48:171 hr 15 mins ago0x060c0c1e8bc4e2403e536c74961dae1c36040550OUT 0xb4666b7402d287347dbbdc4ea5b30e80c376c0b30 MATIC0.0042969066
0x15169cbb840eb3e4fe0f1ecd15ac96cf7510277e13216da290bc6d4401877cc4Transfer221985902021-12-06 10:48:051 hr 15 mins ago0x060c0c1e8bc4e2403e536c74961dae1c36040550OUT 0xb4666b7402d287347dbbdc4ea5b30e80c376c0b30 MATIC0.003890796
0xf6bf97c860a4b8482a37707dfde3fd855cd2b7286f357bd40e5438394e861decTransfer221985842021-12-06 10:47:531 hr 16 mins ago0x060c0c1e8bc4e2403e536c74961dae1c36040550OUT 0xb4666b7402d287347dbbdc4ea5b30e80c376c0b30 MATIC0.002618805
0xe6e50c189f4969e6035dc368bea70a1b95d450259478704173b4d9139e873bb5Transfer221985772021-12-06 10:47:391 hr 16 mins ago0x060c0c1e8bc4e2403e536c74961dae1c36040550OUT 0xb4666b7402d287347dbbdc4ea5b30e80c376c0b30 MATIC0.0074823
0x7a9d8cf3aaf99109fb3fe84bf17bcbb09438b0f177ac17d4fffb8360226186bdTransfer221985712021-12-06 10:47:271 hr 16 mins ago0x060c0c1e8bc4e2403e536c74961dae1c36040550OUT 0xb4666b7402d287347dbbdc4ea5b30e80c376c0b30 MATIC0.0055171083
0x2ca08b728a5b551a30051d17d387a1494e34f3827ef6087c96d53983470d6534Transfer221985652021-12-06 10:47:151 hr 16 mins ago0x060c0c1e8bc4e2403e536c74961dae1c36040550OUT 0xb4666b7402d287347dbbdc4ea5b30e80c376c0b30 MATIC0.0055118019
0xfd83531b8e18927a696830b96206b78e41e64e0a9ffbb3e38f2e8eb82a3fe104Transfer221985582021-12-06 10:47:011 hr 17 mins ago0x060c0c1e8bc4e2403e536c74961dae1c36040550OUT 0xb4666b7402d287347dbbdc4ea5b30e80c376c0b30 MATIC0.004142198
0x385fe756a79e0a8055a1639713df5876c77eaa6b7287ad0155df555fd5e35672Transfer221985522021-12-06 10:46:491 hr 17 mins ago0x060c0c1e8bc4e2403e536c74961dae1c36040550OUT 0xb4666b7402d287347dbbdc4ea5b30e80c376c0b30 MATIC0.005190224
0xba31a2d7779c0e0a27497b64d438679ed9d3e79024a8cdacba24200f4ad55e6bTransfer221786192021-12-05 21:58:2714 hrs 5 mins ago0x060c0c1e8bc4e2403e536c74961dae1c36040550OUT 0xb4666b7402d287347dbbdc4ea5b30e80c376c0b30 MATIC0.0155376
0x30f0b50955e79c9339bc8630477e3ba179a4acc95eb4d8aaa14681f2d681ff24Transfer221786132021-12-05 21:58:1514 hrs 5 mins ago0x060c0c1e8bc4e2403e536c74961dae1c36040550OUT 0xb4666b7402d287347dbbdc4ea5b30e80c376c0b30 MATIC0.0074787
0xa99bcd87767c84d4197fd0683b8c4f72ff4aa28bd9004386df81bfa967f255c6Transfer221786062021-12-05 21:58:0114 hrs 6 mins ago0x060c0c1e8bc4e2403e536c74961dae1c36040550OUT 0xb4666b7402d287347dbbdc4ea5b30e80c376c0b30 MATIC0.0070000632
0xf46050fc3e4de53c35c3242b1746ee8380c38db0db06dbfd57968ac3d284d15cTransfer221786002021-12-05 21:57:4914 hrs 6 mins ago0x060c0c1e8bc4e2403e536c74961dae1c36040550OUT 0xb4666b7402d287347dbbdc4ea5b30e80c376c0b30 MATIC0.004163143
0xa31ae8cc6169f46c3492f84c1f22f042b60ba180fb1d587816bbbfc204f2f35dTransfer221785932021-12-05 21:57:3514 hrs 6 mins ago0x060c0c1e8bc4e2403e536c74961dae1c36040550OUT 0xb4666b7402d287347dbbdc4ea5b30e80c376c0b30 MATIC0.0059562811
0x196dd6b9a4d93760e61d776de1074e74b5d4d1b81439e363070b422d59b08e4dTransfer221785872021-12-05 21:57:2314 hrs 6 mins ago0x060c0c1e8bc4e2403e536c74961dae1c36040550OUT 0xb4666b7402d287347dbbdc4ea5b30e80c376c0b30 MATIC0.0059505523
0x5a83d27455f024e0644902cc30c03c0c0e4c7139fd1176df2744cce6ae256150Transfer221785812021-12-05 21:57:1114 hrs 6 mins ago0x060c0c1e8bc4e2403e536c74961dae1c36040550OUT 0xb4666b7402d287347dbbdc4ea5b30e80c376c0b30 MATIC0.002918097
0x22c755b15bd3358bd9859b623043e3583f04d8e9d3de41bf858f8efeaf41560cTransfer221785742021-12-05 21:56:5714 hrs 7 mins ago0x060c0c1e8bc4e2403e536c74961dae1c36040550OUT 0xb4666b7402d287347dbbdc4ea5b30e80c376c0b30 MATIC0.004963259
0xf2b1cda4188f7f77ec465bb4a9c929a5d451de14de5b5a627b8199657fff8f71Transfer221785682021-12-05 21:56:4514 hrs 7 mins ago0x060c0c1e8bc4e2403e536c74961dae1c36040550OUT 0xb4666b7402d287347dbbdc4ea5b30e80c376c0b30 MATIC0.004960871
0x1d024109f1fb7a14b7d87d26f5919e54a6bb37a46a413df1c9ddefb36b80b7f2Transfer221785622021-12-05 21:56:3314 hrs 7 mins ago0x060c0c1e8bc4e2403e536c74961dae1c36040550OUT 0xb4666b7402d287347dbbdc4ea5b30e80c376c0b30 MATIC0.005210161
0x7ab52771dfee0f5f57839c9e25d74353cc3af7c5434ebfbd4bef44a828bd76c6Transfer221785572021-12-05 21:56:1914 hrs 7 mins ago0x060c0c1e8bc4e2403e536c74961dae1c36040550OUT 0xb4666b7402d287347dbbdc4ea5b30e80c376c0b30 MATIC0.004163143
0x5c08afe1699cf6d794f72e92fdecac5da9afa48cd01cd43ac0304583234306f7Transfer221785512021-12-05 21:56:0714 hrs 7 mins ago0x060c0c1e8bc4e2403e536c74961dae1c36040550OUT 0xb4666b7402d287347dbbdc4ea5b30e80c376c0b30 MATIC0.004165147
0xcb6130fc7f339950c726e05f40062d265b5fa6f2bb9b38fa8f4556b33b912a02Transfer221785442021-12-05 21:55:5314 hrs 8 mins ago0x060c0c1e8bc4e2403e536c74961dae1c36040550OUT 0xb4666b7402d287347dbbdc4ea5b30e80c376c0b30 MATIC0.0042503945
0x04d27e02c73a2314194d3dd4b401e53d52fa1571e34cf3965571cc97a926c807Transfer221785382021-12-05 21:55:4114 hrs 8 mins ago0x060c0c1e8bc4e2403e536c74961dae1c36040550OUT 0xb4666b7402d287347dbbdc4ea5b30e80c376c0b30 MATIC0.0042503945
0x82200b524a8a23aed3d284129acb57af2cb9af70fe6363a253161c72d4aabefdTransfer221785322021-12-05 21:55:2914 hrs 8 mins ago0x060c0c1e8bc4e2403e536c74961dae1c36040550OUT 0xb4666b7402d287347dbbdc4ea5b30e80c376c0b30 MATIC0.004163143
[ Download CSV Export 
Parent Txn Hash Block From To Value
Loading

Contract Name:
0 MATIC

Compiler Version
0

Optimization Enabled:
0 MATIC

Other Settings:
-NA-
Block Transaction Gas Used Reward
Age Block Fee Address BC Fee Address Voting Power Jailed Incoming
Block Uncle Number Difficulty Gas Used Reward
Loading
Loading
Make sure to use the "Vote Down" button for any spammy posts, and the "Vote Up" for interesting conversations.